Weather History for Brize Norton, United Kingdom

Change the Weather History Date:

Saturday, December 7, 2013

  Actual Average Record
Temperature  
Mean Temperature 43 °F -  
Max Temperature 47 °F 44 °F 55 °F (2007)
Min Temperature 39 °F 34 °F 21 °F (2010)
Degree Days  
Heating Degree Days 22    
Moisture  
Dew Point 42 °F    
Average Humidity 93    
Maximum Humidity 100    
Minimum Humidity 87    
Precipitation  
Precipitation 0.00 in - - ()
Sea Level Pressure  
Sea Level Pressure 30.30 in    
Wind  
Wind Speed 4 mph ()    
Max Wind Speed 7 mph    
Max Gust Speed -    
Visibility 6.4 miles    
Events Rain    
Averages and records for this station are not official NWS values.
T = Trace of Precipitation, MM = Missing Value Source: Averaged Metar Reports

Daily Weather History Graph

Daily Weather History Graph

Search for Another Location

Airport:

Trip Planner

Search our weather history database for the weather conditions in past years. The results will help you decide how hot, cold, wet, or windy it might be!

Date:

Astronomy

Dec. 07, 2013 Rise Set
Actual Time 7:58 AM GMT 3:56 PM GMT
Civil Twilight 7:18 AM GMT 4:36 PM GMT
Nautical Twilight 6:35 AM GMT 5:19 PM GMT
Astronomical Twilight 5:54 AM GMT 6:00 PM GMT
Moon 11:10 AM GMT (12/7) 9:48 PM GMT (12/7)
Length of Visible Light 9h 17m
Length of Day
7h 58m
Waxing Crescent, 27% of the Moon is Illuminated
Dec 7
Waxing Crescent
Dec 9
First Quarter
Dec 17
Full
Dec 25
Last Quarter
Jan 1
New

Hourly Weather History & Observations

Time (GMT) Temp. Windchill Dew Point Humidity Pressure Visibility Wind Dir Wind Speed Gust Speed Precip Events Conditions
12:00 AM 39 °F - 38 °F 97% 30.38 in 3 mi WSW 4.6 mph - -   Mist
12:50 AM 41.0 °F 39.0 °F 39.2 °F 93% 30.33 in 2.8 mi West 3.5 mph - N/A   Mostly Cloudy
1:50 AM 39.2 °F 35.9 °F 39.2 °F 100% 30.33 in 2.8 mi West 4.6 mph - N/A   Mostly Cloudy
2:50 AM 39.2 °F 35.0 °F 39.2 °F 100% 30.33 in 2.8 mi WSW 5.8 mph - N/A   Mostly Cloudy
3:00 AM 39 °F - 39 °F 98% 30.35 in 3 mi WSW 5.8 mph - -   Mist
3:50 AM 41.0 °F 36.4 °F 39.2 °F 93% 30.33 in 6.2 mi WSW 6.9 mph - N/A   Mostly Cloudy
4:50 AM 42.8 °F 41.1 °F 41.0 °F 93% 30.30 in 6.2 mi SW 3.5 mph - N/A   Mostly Cloudy
5:50 AM 42.8 °F 40.1 °F 41.0 °F 93% 30.33 in 6.2 mi WSW 4.6 mph - N/A   Mostly Cloudy
6:00 AM 43 °F - 42 °F 92% 30.35 in 9 mi WSW 4.6 mph - -   Mostly Cloudy
6:50 AM 42.8 °F 39.3 °F 42.8 °F 100% 30.30 in 6.2 mi WSW 5.8 mph - N/A   Mostly Cloudy
7:50 AM 42.8 °F 40.1 °F 41.0 °F 93% 30.30 in 6.2 mi SW 4.6 mph - N/A   Mostly Cloudy
8:50 AM 44.6 °F 42.2 °F 42.8 °F 93% 30.30 in 6.2 mi West 4.6 mph - N/A   Mostly Cloudy
9:00 AM 44 °F - 42 °F 92% 30.34 in 7 mi West 4.6 mph - -   Mostly Cloudy
9:50 AM 44.6 °F 42.2 °F 42.8 °F 93% 30.30 in 6.2 mi WSW 4.6 mph - N/A   Mostly Cloudy
10:50 AM 46.4 °F 43.5 °F 42.8 °F 87% 30.33 in 6.2 mi WSW 5.8 mph - N/A   Mostly Cloudy
11:50 AM 46.4 °F 43.5 °F 42.8 °F 87% 30.30 in 6.2 mi WSW 5.8 mph - N/A   Mostly Cloudy
12:00 PM 46 °F - 43 °F 87% 30.33 in 10 mi WSW 5.8 mph - -   Mostly Cloudy
12:50 PM 46.4 °F 43.5 °F 42.8 °F 87% 30.30 in 6.2 mi SW 5.8 mph - N/A   Mostly Cloudy
1:50 PM 48.2 °F - 44.6 °F 87% 30.27 in 6.2 mi WSW 6.9 mph - N/A   Scattered Clouds
2:50 PM 46.4 °F 43.5 °F 42.8 °F 87% 30.27 in 6.2 mi WSW 5.8 mph - N/A   Mostly Cloudy
3:00 PM 46 °F - 44 °F 88% 30.29 in 12 mi WSW 5.8 mph - -   Mostly Cloudy
3:50 PM 46.4 °F 43.5 °F 44.6 °F 93% 30.27 in 6.2 mi SW 5.8 mph - N/A   Mostly Cloudy
4:50 PM 46.4 °F 45.2 °F 42.8 °F 87% 30.27 in 6.2 mi SW 3.5 mph - N/A   Mostly Cloudy
5:50 PM 44.6 °F 43.1 °F 42.8 °F 93% 30.24 in 6.2 mi SW 3.5 mph - N/A   Mostly Cloudy
6:00 PM 45 °F - 44 °F 92% 30.27 in 12 mi SW 3.5 mph - -   Mostly Cloudy
6:50 PM 44.6 °F 42.2 °F 42.8 °F 93% 30.24 in 6.2 mi SW 4.6 mph - N/A   Mostly Cloudy
7:50 PM 44.6 °F 41.4 °F 44.6 °F 100% 30.27 in 6.2 mi SW 5.8 mph - N/A   Mostly Cloudy
8:50 PM 44.6 °F 41.4 °F 44.6 °F 100% 30.27 in 6.2 mi SW 5.8 mph - N/A   Mostly Cloudy
9:00 PM 45 °F - 44 °F 95% 30.28 in 11 mi SW 5.8 mph - - Rain Light Rain
9:50 PM 44.6 °F 41.4 °F 42.8 °F 93% 30.27 in 6.2 mi SW 5.8 mph - N/A   Mostly Cloudy
10:50 PM 44.6 °F 42.2 °F 42.8 °F 93% 30.24 in 6.2 mi SW 4.6 mph - N/A   Mostly Cloudy
11:50 PM 42.8 °F 40.1 °F 42.8 °F 100% 30.24 in 6.2 mi SW 4.6 mph - N/A   Mostly Cloudy